Weather in Volgograd

Russia / Volgograd Oblast     48°42′25″N   44°31′00″E
temp.,
°C
wind,
m/s
gust,
m/s
humid.,
%
clouds,
%
prec.,
mm/h
press.,
hPa
HPBL,
m
4 march, thu
thu400:00−2nw510760 0.0 1019706
03:00−2wnw59750 0.0 1020590
06:00−2wsw611750 0.0 1020460
09:00+1wsw8145911 0.0 1019752
12:00+4wsw9144224 0.0 10181090
15:00+5wsw9144412 0.0 10161096
18:00+3wsw714570 0.0 1014741
21:00+2wsw817610 0.0 1014627
5 march, fri
fri500:00+1wsw818710 0.0 1013601
03:00+2wsw9188418 0.0 1013653
06:00+2wsw9178590 0.0 1012733
09:00+3wsw8168495 0.0 1012687
12:00+4wsw8138196 0.0 1012768
15:00+4wsw6128298 0.0 1012706
18:00+4wsw51184100 0.1 1014537
21:00+3wsw4994100 0.1 1015338
6 march, sat
sat600:00+3sw2398100 0.6 101599
03:00+3sw2994100 2.1 1014334
06:00+3sw3988100 0.3 1013391
09:00+3sw31080100 0.7 1012531
12:00+2nw2696100 2.6 1010274
15:00+1nne2297100 5.9 100983
18:00−1nne61091100 0.9 1010444
21:00−2n5985100 1.0 1012614
7 march, sun
sun700:00−3n4784100 0.1 1014587
03:00−4nnw358281 0.1 1017294
06:00−4n237986 0.0 1018210
09:00−3wnw247072 0.0 1020591
12:00−1w566493 0.0 10211029
15:000w685990 0.1 10201374
18:00−1wsw595577 0.0 1019879
21:00−1sw7135689 0.0 1018957
8 march, mon
mon800:00−2wsw8145673 0.0 1017812
03:00−2wsw8156137 0.0 1015716
06:00−2wsw814670 0.0 1014684
09:00+1wsw9146129 0.0 1013939
12:00+4wsw10155286 0.0 10121416
15:00+5wsw10155192 0.0 10111598
18:00+3w6136698 0.0 1012899
21:00+1wsw4117491 0.0 1014585